Overview Statistics Trail Chart Weather Telemetry Raw packets
 

This is the latest recevied weather packets stored in our database for station/object KC2GYU. If no packets are shown the sender has not sent any weather packets the latest 10 day(s).

<< 51 52 53 54 55 56 57 >>
Time Temp. Humidity Pressure Rain* Wind** Luminosity Snow
1777729522 13.33° C 76% 1012.8 hPa 0 mm - 207 W/m² -
1777729219 13.33° C 78% 1012.8 hPa 0 mm - 252 W/m² -
1777728916 13.33° C 78% 1013.2 hPa 0 mm - 225 W/m² -
1777728613 13.33° C 79% 1012.9 hPa 0 mm - 196 W/m² -
1777728310 13.33° C 79% 1013 hPa 0 mm - 215 W/m² -
1777728007 13.33° C 79% 1013.2 hPa 0 mm - 251 W/m² -
1777727704 12.78° C 81% 1013 hPa 0 mm - 231 W/m² -
1777727400 12.78° C 81% 1013.1 hPa 0 mm - 218 W/m² -
1777727098 12.78° C 82% 1013 hPa 0 mm - 185 W/m² -
1777726796 12.78° C 82% 1013 hPa 0 mm - 189 W/m² -
1777726492 12.78° C 83% 1013.4 hPa 0 mm - 182 W/m² -
1777726189 12.78° C 84% 1013.2 hPa 0 mm - 194 W/m² -
1777725886 12.22° C 85% 1013.2 hPa 0 mm - 210 W/m² -
1777725584 12.22° C 87% 1013.3 hPa 0 mm - 172 W/m² -
1777725281 11.67° C 88% 1013.1 hPa 0 mm - 140 W/m² -
1777724978 11.67° C 89% 1013.2 hPa 0 mm - 122 W/m² -
1777724673 11.67° C 89% 1013.3 hPa 0 mm - 111 W/m² -
1777724372 11.67° C 90% 1013.2 hPa 0 mm - 107 W/m² -
1777724069 11.11° C 91% 1013.2 hPa 0 mm - 114 W/m² -
1777723766 11.11° C 92% 1013.3 hPa 0 mm - 114 W/m² -
1777723462 10.56° C 92% 1013.2 hPa 0 mm - 117 W/m² -
1777723160 10.56° C 93% 1013.2 hPa 0 mm - 101 W/m² -
1777722857 10.56° C 95% 1013.2 hPa 0 mm - 94 W/m² -
1777722553 10° C 96% 1013.2 hPa 0 mm - 89 W/m² -
1777722250 10° C 96% 1013.3 hPa 0 mm - 90 W/m² -

* Rain latest hour (hover to see other rain measurements)
** Current wind speed in m/s (hover to see current wind gust speed)